Regional Weather Roundup
Issued by NWS

Home | Current Version | Previous Version | Graphics & Text | Print | Product List | Glossary On
Versions: 1 2 3 4 5 6 7 8 9 10 11 12 13 14 15 16 17 18 19 20 21 22 23 24 25 26 27 28 29 30 31 32 33 34 35 36 37 38 39 40 41 42 43 44 45 46 47 48 49 50
000
ASUS43 KLOT 271303
RWRIL

ILLINOIS REGIONAL WEATHER ROUNDUP
NATIONAL WEATHER SERVICE CHICAGO/ROMEOVILLE IL
800 AM CDT SUN MAY 27 2018

NOTE: "FAIR" INDICATES FEW OR NO CLOUDS BELOW 12,000 FEET WITH NO
SIGNIFICANT WEATHER AND/OR OBSTRUCTIONS TO VISIBILITY.

* THESE STATIONS ARE NOT UNDER NWS QUALITY CONTROL. THEY ALSO MAY NOT
  REPORT WEATHER SUCH AS PRECIPITATION OR FOG.

ILZ001-002-007-009-015-016-024-271400-
NORTHWEST ILLINOIS

CITY           SKY/WX    TMP DP  RH WIND       PRES   REMARKS
MOLINE         FAIR      75  67  76 CALM      29.84R
STERLING*        N/A    N/A N/A N/A MISG        N/A
SAVANNA*       FAIR      74  69  85 CALM      29.85S
$$

ILZ003-004-008-010-011-017-018-271400-
NORTH CENTRAL ILLINOIS

CITY           SKY/WX    TMP DP  RH WIND       PRES   REMARKS
ROCKFORD       FAIR      74  68  81 S3        29.87R
FREEPORT*      FAIR      77  70  79 S5        29.87S
ROCHELLE*      FAIR      76  69  77 SW6       29.88R
DE KALB*       FAIR      78  70  77 CALM      29.88R HX  80
PERU*          FAIR      78  71  77 CALM      29.87S HX  81
$$

ILZ005-006-012>014-019>023-271400-
NORTHEAST ILLINOIS

CITY           SKY/WX    TMP DP  RH WIND       PRES   REMARKS
CHICAGO-OHARE  FAIR      78  68  71 W7        29.86R HX  80
CHICAGO-MIDWAY FAIR      80  70  71 SW5       29.86R HX  83
AURORA         FAIR      76  70  82 CALM      29.87R
LANSING*       FAIR      78  68  72 CALM      29.88R HX  80
JOLIET*        FAIR      78  70  77 CALM      29.88R HX  80
WAUKEGAN       FAIR      81  67  62 VRB3      29.86R HX  83
DUPAGE AIRPORT FAIR      76  71  85 SE3       29.87R
KANKAKEE*      FAIR      77  67  70 CALM      29.89R
WHEELING       FAIR      79  69  71 CALM      29.88R HX  81
MORRIS*        FAIR      78  68  71 SW3       29.86S HX  80
ROMEOVILLE*    FAIR      76  68  75 S3        29.88R
$$

LMZ740>746-271400-
SOUTHERN LAKE MICHIGAN

STATION/POSITION SKY/WX   TEMP    WIND        PRES    VSBY  WAVE
                          AIR SEA DIR/SP/G                  HT/PER
                          (F)     (DEG/KT/KT) (MB)    (MI)  (FT/S)
SOUTHERN BUOY              55 40  210/  8/  8 1011.0          0
WILMETTE HARBOR            67 57  140/  2/  4   N/A           0
HARRISON CRIB              76     250/  6/  6   N/A
BURNHAM HARBOR                    270/  5/  8   N/A
CALUMET HARBOR             78     230/  4/  5 1010.9
BURNS HARBOR               76     210/  5/  7 1012.2R
MICHIGAN CITY              77     190/  5/  6   N/A
MICHIGAN CITY 6N           70 64  230/  2/  2   N/A           0
ST. JOSEPH                 68 64  220/  4/  4 1011.6R         0
$$

ILZ025>027-034>036-040-047-049-050-058-095>099-271400-
WEST-CENTRAL ILLINOIS

CITY           SKY/WX    TMP DP  RH WIND       PRES   REMARKS
QUINCY         SUNNY     78  70  76 SW7       29.87R HX  80
GALESBURG*     FAIR      75  68  78 CALM      29.87R
MACOMB*        SUNNY     73  69  87 S3        29.88S
JACKSONVILLE*  SUNNY     77  71  81 S7        29.88R
PITTSFIELD*    SUNNY     79  73  80 SW5       29.89R HX  83
$$

ILZ028>032-037-038-041>044-048-051>054-059>061-271400-
CENTRAL ILLINOIS

CITY           SKY/WX    TMP DP  RH WIND       PRES   REMARKS
PONTIAC        FAIR      78  73  84 CALM      29.89R
BLOOMINGTON    FAIR      79  71  76 SW3       29.89R HX  82
DECATUR        FAIR      77  69  76 SW5       29.89R
PEORIA         FAIR      77  71  82 CALM      29.86S
LACON*         FAIR      75  71  86 CALM      29.86R
LINCOLN*       FAIR      78  72  83 CALM      29.88S
SPRINGFIELD    FAIR      79  71  76 SW5       29.88R HX  82
TAYLORVILLE    FAIR      76  68  75 SW6       29.89R
$$

ILZ033-039-045-046-055>057-062-063-271400-
EAST-CENTRAL ILLINOIS

CITY           SKY/WX    TMP DP  RH WIND       PRES   REMARKS
CHAMPAIGN      FAIR      76  71  85 SW8       29.90R
DANVILLE*      FAIR      77  70  79 CALM      29.87R
RANTOUL*       FAIR      79  74  84 S3        29.90R HX  83
MATTOON        FAIR      76  72  87 SW3       29.89R
PARIS*         FAIR      80  72  76 SW5       29.90S HX  83
$$

ILZ079-100>102-271400-
SOUTHWEST ILLINOIS

CITY           SKY/WX    TMP DP  RH WIND       PRES   REMARKS
ALTON          MOSUNNY   79  72  78 SW5       29.90R HX  82
BELLEVILLE     SUNNY     77  71  81 SW5         N/A
CAHOKIA*       SUNNY     78  70  76 VRB3      29.89R HX  80
SPARTA*        SUNNY     77  74  88 SW3       29.92R
$$

ILZ064>066-069>071-074>076-080>082-084>086-088>090-092>094-271400-
SOUTH-CENTRAL ILLINOIS

CITY           SKY/WX    TMP DP  RH WIND       PRES   REMARKS
CARBONDALE     FAIR      75  71  87 S5        29.91R
CAIRO*         FAIR      76  73  91 CALM      29.91R FOG
EFFINGHAM*     FAIR      76  72  87 CALM      29.91S
MARION         MOSUNNY   75  75 100 S6        29.92R
MT. VERNON     FAIR      77  72  84 W7        29.91R
CENTRALIA*     SUNNY     77  73  85 SW5       29.90R
SALEM*         FAIR      78  71  81 SW6       29.90R
METROPOLIS*    FAIR      77  72  84 CALM      29.93R
$$

ILZ067-068-072-073-078-083-087-091-271400-
SOUTHEAST ILLINOIS

CITY           SKY/WX    TMP DP  RH WIND       PRES   REMARKS
LAWRENCEVILLE  FAIR      78  68  71 S6        29.91R HX  80
FLORA*         FAIR      78  72  82 S3        29.91R HX  80
FAIRFIELD*     FAIR      77  71  83 S3        29.90R
HARRISBURG*    FAIR      75  73  93 S3        29.92S
ROBINSON*      FAIR      76  72  85 CALM      29.91R
CARMI*         FAIR      78  72  81 S3        29.91R HX  80
$$

ABBREVIATIONS USED IN REMARKS
   TC - TEMPERATURE IN CELSIUS
  WCI - WIND CHILL INDEX
   HX - HEAT INDEX
  VSB - VISIBILITY
$$




USA.gov is the U.S. government's official web portal to all federal, state and local government web resources and services.